Regional Weather Roundup
Issued by NWS

Home | Current Version | Previous Version | Graphics & Text | Print | Product List | Glossary On
Versions: 1 2 3 4 5 6 7 8 9 10 11 12 13 14 15 16 17 18 19 20 21 22 23 24 25 26 27
000
ASUS45 KPSR 160210
RWRAZ

ARIZONA HOURLY REGIONAL WEATHER ROUNDUP
NATIONAL WEATHER SERVICE PHOENIX AZ
700 PM MST SUN OCT 15 2017

NOTE: FAIR INDICATES FEW OR NO CLOUDS BELOW 12,000 FEET WITH NO
SIGNIFICANT WEATHER AND/OR OBSTRUCTIONS TO VISIBILITY.

AZZ001>003-036-160300-
NORTHWEST ARIZONA

CITY           SKY/WX    TMP DP  RH WIND       PRES   REMARKS
KINGMAN        CLEAR     62  14  15 E8        30.26R
$$

AZZ004>008-015-016-018-160300-
NORTH CENTRAL ARIZONA

CITY           SKY/WX    TMP DP  RH WIND       PRES   REMARKS
GRAND CANYON   CLEAR     38  -8  14 CALM      30.46R
WILLIAMS       CLEAR     52   3  14 S5        30.44R
PRESCOTT       CLEAR     61  17  18 SW3       30.31R
FLAGSTAFF      CLEAR     44  -3  14 CALM      30.48R
PAYSON           N/A     66   3   8 NE9       30.35R
PAGE           CLEAR     55  15  20 CALM      30.38R
$$

AZZ009>014-017-160300-
NORTHEAST ARIZONA

CITY           SKY/WX    TMP DP  RH WIND       PRES   REMARKS
WINSLOW        CLEAR     49  -3  11 W6        30.39R
SAINT JOHNS    CLEAR     58   6  12 SW3       30.40R
WINDOW ROCK    CLEAR     51  -3  10 CALM      30.49R
SHOW LOW       CLEAR     55   7  14 CALM      30.46R
$$

AZZ540-542>544-546-548-160300-
GREATER PHOENIX AREA

CITY           SKY/WX    TMP DP  RH WIND       PRES   REMARKS
PHOENIX        PTCLDY    87  22   9 W5        30.01R
BUCKEYE        CLEAR     81  25  12 CALM      30.03R
GLENDALE       PTCLDY    86  23  10 SW5       30.04R
LUKE AFB       CLEAR     82  31  16 SW7       30.01R
DEER VALLEY    CLEAR     83  16   8 NW3       30.04R
SCOTTSDALE     CLEAR     87  22   9 NW3       30.06R
MESA-FALCON    CLEAR     88  25  10 NW6       30.04R
MESA-GATEWAY   PTCLDY    82  23  11 NW3       30.04R
CHANDLER       CLEAR     82  23  11 W8        30.02R
$$

AZZ539-553-160300-
SOUTHWEST MARICOPA COUNTY AND PINAL COUNTY

CITY           SKY/WX    TMP DP  RH WIND       PRES   REMARKS
CASA GRANDE    NOT AVBL
$$

AZZ503-504-507>509-160300-
SOUTHEAST ARIZONA

CITY           SKY/WX    TMP DP  RH WIND       PRES   REMARKS
TUCSON         CLEAR     85  26  11 N5        30.13R
DAVIS-MONTHAN  PTCLDY    84  23  10 NW1       30.10R
RYAN FIELD     CLEAR     81  27  13 MISG      30.11R
NOGALES        PTCLDY    82  32  16 E16G24    30.18R
SIERRA VISTA   PTCLDY    73  29  20 S10       30.28R
DOUGLAS        CLEAR     71  28  20 E6        30.27R
SAFFORD        CLEAR     77  25  14 SE12      30.23R
$$

AZZ532-160300-
SOUTHWEST ARIZONA

CITY           SKY/WX    TMP DP  RH WIND       PRES   REMARKS
YUMA           CLEAR     84  18   8 N7        30.02R
$$

CAZ041-043-047-048-061-525>527-560>570-160300-
SOUTHERN CALIFORNIA

CITY           SKY/WX    TMP DP  RH WIND       PRES   REMARKS
DOWNTOWN L.A.  CLEAR     79  43  27 CALM      30.02R
L.A. AIRPORT   PTCLDY    73  53  49 W13       30.03R
SAN DIEGO      PTCLDY    74  60  61 CALM      30.05R
BURBANK        CLEAR     84  23  10 SE6       30.04R
ONTARIO        PTCLDY    83  26  12 W7        30.05R
RIVERSIDE      CLEAR     83  18   9 CALM      30.05R
PALM SPRINGS   CLEAR     85  27  12 CALM      30.06R
EL CENTRO NAS  CLEAR     82  22  11 SW3       30.04R
IMPERIAL       CLEAR     80  34  19 SW3       30.01S
BLYTHE         CLEAR     81   9   6 N9        30.04S
NEEDLES        CLEAR     81  11   7 NW9       30.11R
$$

NVZ020-UTZ003-160300-
SOUTHERN NEVADA-UTAH

CITY           SKY/WX    TMP DP  RH WIND       PRES   REMARKS
LAS VEGAS      CLEAR     75  12   9 W3        30.21S
SALT LAKE CITY PTCLDY    49  28  44 N3        30.41S
$$

NMZ009-TXZ055-160300-
NEW MEXICO-WEST TEXAS

CITY           SKY/WX    TMP DP  RH WIND       PRES   REMARKS
ALBUQUERQUE    CLEAR     61  22  22 CALM      30.45R
EL PASO        PTCLDY    65  26  23 SE12      30.39R
$$


........................KEY........................
SKY/WX - SKY CONDITION/WEATHER
TMP    - TEMPERATURE IN FAHRENHEIT
DP     - DEW POINT IN FAHRENHEIT
RH     - RELATIVE HUMIDITY IN PERCENT
WIND   - DIRECTION AND SPEED IN MILES PER HOUR (MPH)
VRB    - VARIABLE WIND DIRECTION
PRES   - MEAN SEA LEVEL PRESSURE IN INCHES OF MERCURY
         F - FALLING PRESSURE   R - RISING PRESSURE
         S - STEADY PRESSURE
VSB    - VISIBILITY IN MILES
HX     - HEAT INDEX IN FAHRENHEIT
WCI    - WIND CHILL INDEX IN FAHRENHEIT
TC     - TEMPERATURE IN CELSIUS WHICH IS ALSO KNOWN AS
         TEMPERATURE IN CENTIGRADE
AFB    - AIR FORCE BASE
         LUKE AFB IS LUKE AIR FORCE BASE
         DAVIS-MONTHAN IS DAVIS-MONTHAN AIR FORCE BASE
NAS    - NAVAL AIR STATION
         EL CENTRO NAS IS EL CENTRO NAVAL AIR STATION
N/A    - NOT AVAILABLE





USA.gov is the U.S. government's official web portal to all federal, state and local government web resources and services.